Regional Weather Roundup
Issued by NWS Upton, NY

Current Version | Previous Version | Graphics & Text | Print | Product List | Glossary Off
Versions: 1 2 3 4 5 6 7 8 9 10 11 12 13 14 15 16 17 18 19 20 21 22 23 24 25 26 27 28 29 30 31 32 33 34 35 36 37 38 39 40 41 42 43 44 45 46 47 48 49 50

561
ASUS41 KOKX 052304
RWROKX

REGIONAL WEATHER ROUNDUP
NATIONAL WEATHER SERVICE NEW YORK NY
600 PM EST FRI FEB 05 2016

NOTE: "FAIR" INDICATES FEW OR NO CLOUDS BELOW 12,000 FEET WITH NO
SIGNIFICANT WEATHER AND/OR OBSTRUCTIONS TO VISIBILITY.

NYZ071-072-176-178-NJZ106-104-060000-
NEW YORK CITY METRO AREA


CITY           SKY/WX    TMP DP  RH WIND       PRES   REMARKS
CENTRAL PARK   CLEAR     37  15  40 W13G21    30.24R WCI  29
LAGUARDIA APRT PTCLDY    39  17  41 NW18G26   30.22R WCI  30
KENNEDY INTL   PTCLDY    39  15  37 NW24G30   30.23R WCI  28
NEWARK/LIBERTY PTCLDY    37  17  44 NW16G24   30.24R WCI  28
BRNX BOT. GARD   N/A     36  18  48 W16       30.21R WCI  26
TETERBORO      CLEAR     37  15  40 NW12      30.22R WCI  29
$$

NYZ177-179-078>081-060000-
LONG ISLAND NEW YORK

CITY           SKY/WX    TMP DP  RH WIND       PRES   REMARKS
FARMINGDALE    CLEAR     35  21  56 NW7       30.20R WCI  29
ISLIP          PTCLDY    34  21  59 NW12      30.16R WCI  25
SHIRLEY        CLEAR     32  24  72 NW9       30.18R WCI  24
RIVERHEAD        N/A     34  19  55 N1        30.18R
WESTHAMPTON    CLEAR     32  23  69 NW6       30.17R WCI  26
EAST HAMPTON   FAIR      33  25  72 NW7       30.12R WCI  27
MONTAUK POINT    N/A     36  25  64 NW16G24   30.13R WCI  26
$$

NYZ052-065-067-060000-
HUDSON VALLEY

CITY           SKY/WX    TMP DP  RH WIND       PRES   REMARKS
WHITE PLAINS   CLEAR     36  13  38 NW17      30.17R WCI  26
NEWBURGH       CLEAR     34  12  40 NW16G23   30.20R WCI  23
MONTGOMERY     CLEAR     35  12  38 NW16G24   30.21R WCI  25
POUGHKEEPSIE   CLEAR     38   8  29 NW10      30.20R WCI  31
ALBANY         PTCLDY    34  10  37 NW17G28   30.21R WCI  23
$$

NJZ001-105-106-008-010-013-015-019>022-104-060000-
NEW JERSEY

CITY           SKY/WX    TMP DP  RH WIND       PRES   REMARKS
NEWARK/LIBERTY PTCLDY    37  17  44 NW16G24   30.24R WCI  28
TETERBORO      CLEAR     37  15  40 NW12      30.22R WCI  29
CALDWELL       CLEAR     36  14  40 NW9G17    30.24R WCI  29
MORRISTOWN     CLEAR     36  16  44 N10G18    30.24R WCI  28
SOMERVILLE     CLEAR     36  15  42 NW8       30.25R WCI  30
SUSSEX         CLEAR     34  13  41 VRB6      30.24R WCI  29
ANDOVER          N/A     33  12  41 N9G18     30.25R WCI  25
TRENTON        CLEAR     37  16  42 NW13G18   30.26R WCI  29
MILLVILLE      PTCLDY    37  25  61 W10       30.29R WCI  30
ATLANTIC CITY  PTCLDY    37  25  61 W10       30.27R WCI  30
WRIGHTSTOWN    CLEAR     37  19  49 NW13      30.24R WCI  28
TOMS RIVER     CLEAR     34  21  60 NW8       30.26R WCI  27
BELMAR         CLEAR     36  18  48 NW9       30.24R WCI  29
$$

PAZ047>061-062-071-060000-
EASTERN PENNSYLVANIA

CITY           SKY/WX    TMP DP  RH WIND       PRES   REMARKS
PHILADELPHIA   CLEAR     41  15  35 NW13      30.29R
ALLENTOWN      CLEAR     36  15  42 N14       30.28R WCI  27
SCRANTON       CLEAR     31  14  49 NW12      30.26R WCI  22
$$

CTZ002-004>006-009-010-012-RIZ004-006-007-MAZ004-011-015-060000-
SOUTHERN NEW ENGLAND
 IN CT

CITY           SKY/WX    TMP DP  RH WIND       PRES   REMARKS
BRADLEY INTL   CLEAR     31  18  58 NW5       30.13R WCI  26
HARTFORD       CLEAR     34  18  52 NW5       30.15R WCI  30
DANBURY        CLEAR     35   9  33 VRB6      30.18R WCI  30
WTRBRY/OXFORD  CLEAR     34   9  35 N9G25     30.14R WCI  26
BRIDGEPORT     CLEAR     34  19  54 W5        30.18R WCI  30
MERIDEN        CLEAR     34  15  46 NW9       30.15R WCI  27
NEW HAVEN      CLEAR     35  18  49 NW7       30.16R WCI  29
CHESTER        FAIR      32  19  59 NW8G21    30.13R WCI  25
GROTON         CLEAR     31  27  85 NW7       30.12R WCI  24
WILLIMANTIC    CLEAR     32  20  61 VRB5      30.11R WCI  27

 IN RI

CITY           SKY/WX    TMP DP  RH WIND       PRES   REMARKS
PROVIDENCE     CLOUDY    31  22  69 NW7       30.09R WCI  24
BLOCK ISLAND   CLOUDY    34  27  75 NW12G20   30.09R WCI  25
WESTERLY       MOCLDY    30  25  81 W5        30.11R WCI  25

 IN MA

CITY           SKY/WX    TMP DP  RH WIND       PRES   REMARKS
BOSTON         CLOUDY    31  24  75 W13G23    30.07R WCI  21
WORCESTER      CLEAR     28  16  60 NW10      30.05R WCI  19
WESTFIELD      CLEAR     32  15  49 NW10      30.13R WCI  24
PROVINCETOWN   LGT SNOW  32  31  96 NW30G38   30.02R FOG     WCI  18
NANTUCKET      LGT SNOW  33  32  96 NW26G35   30.01R VSB 1   WCI  20
$$

ANZ330-335-338-340-345-350-353-355-060000-
COASTAL MARINE OBSERVATIONS


STATION/POSITION TIME  SKY/WX   TEMP    WIND        PRES    VSBY  WAVE
                                AIR SEA DIR/SP/G                  HT/PER
                 (UTC)          (F)     (DEG/KT/KT) (MB)    (MI)  (FT/S)
NY HARB ENTRANCE 2150            41 44  310/ 25/ 29 1020.3          3/ 4
4S FIRE IS       NOT AVBL
20S FIRE ISLAND  2150            41 46  310/ 21/ 27 1019.8          5/ 5
GREAT SOUTH BAY  NOT AVBL
23SW MTP         2250            39 46  310/ 23/ 29 1019.4          5/ 5
HUDSON CANYON    2150            42 51              1019.8         14/ 9
KINGS POINT      2200            39 40  350/ 17/ 20 1021.3
EXECUTION ROCKS  NOT AVBL
CENTRAL LI SOUND 2230            38     320/ 19/ 25   N/A           1/ 3
EASTERN LI SOUND 2200            35 42  300/ 14/ 17   N/A
ROBBINS REEF     2200            38     330/ 21/ 30 1021.5
$$


>>>>>>>>>>>>>>>>>>>>>>>>>>>> KEY <<<<<<<<<<<<<<<<<<<<<<<<<<<
>                                                          <
>     SKY/WX - SKY CONDITION/PRESENT WEATHER               <
>     TMP    - TEMPERATURE IN FAHRENHEIT                   <
>     DP     - DEWPOINT IN FAHRENHEIT                      <
>     RH     - RELATIVE HUMIDITY IN PERCENT                <
>     WIND   - DIRECTION AND SPEED IN MPH                  <
>     PRES   - MEAN SEA LEVEL PRESSURE IN INCHES OF HG     <
>     WCI    - WIND CHILL INDEX                            <
>     VSB    - VISIBILITY IN MILES                         <
>     HX     - HEAT INDEX                                  <
>     TC     - TEMPERATURE IN CELSIUS                      <
>     VRB    - VARIABLE WIND DIRECTION                     <
>                                                          <
>>>>>>>>>>>>>>>>>>>>>>>>>>>> KEY <<<<<<<<<<<<<<<<<<<<<<<<<<<






USA.gov is the U.S. government's official web portal to all federal, state and local government web resources and services.